Theta_e
341 338 333 332 331 329 328 328 327 328 327 327 327 326 326 326 326 327 327 326 325 325 325 324 325 325 324 325 328 331 335 335 329 328 328 328 331 335 337 341 340 334 337
342 335 333 331 329 328 328 328 328 327 326 325 325 325 324 324 325 325 325 325 324 324 324 324 324 324 324 324 324 324 328 331 333 332 328 328 332 335 339 339 339 339 334
343 331 329 330 330 329 329 328 327 327 328 328 329 328 328 327 327 327 327 327 327 327 327 327 327 327 326 324 323 323 324 325 327 330 333 331 331 336 337 337 337 341 335
343 333 330 331 330 329 330 330 329 329 327 325 325 324 324 323 323 322 321 321 320 320 320 320 320 321 322 324 326 325 323 324 323 327 335 334 339 340 340 335 336 341 342
342 336 332 332 332 332 331 329 327 325 325 323 320 318 316 315 314 314 313 313 313 313 313 314 314 314 315 316 317 319 323 324 324 323 333 341 340 339 342 339 335 337 338
341 336 333 332 332 331 328 325 325 323 319 317 315 316 315 314 314 313 312 311 313 313 312 311 310 310 311 313 313 313 313 317 324 324 323 336 338 338 342 341 338 335 335
337 333 333 332 332 328 325 324 321 317 317 319 319 318 317 316 315 315 317 320 319 316 315 314 313 311 310 310 310 311 312 312 313 323 324 326 336 339 341 338 339 337 334
341 335 333 334 331 327 326 322 318 320 321 321 321 320 318 318 321 320 321 321 320 319 314 314 312 311 311 310 311 315 314 312 311 313 323 325 335 335 337 337 335 334 336
342 341 340 334 331 327 324 319 320 322 323 323 322 322 321 322 322 322 323 323 322 322 321 320 318 314 311 314 320 320 319 318 317 313 312 322 331 332 334 337 334 332 332
341 341 339 334 332 327 322 320 322 323 324 326 325 323 323 324 324 324 324 324 323 322 322 322 321 320 317 321 321 321 321 321 321 321 319 314 324 329 333 336 334 333 330
340 340 338 335 330 325 320 322 324 325 327 327 326 325 325 325 325 325 326 326 325 324 323 323 322 322 322 321 321 321 320 321 320 320 321 315 320 326 329 331 335 331 326
340 339 337 334 328 323 322 328 327 328 328 328 327 327 326 326 326 326 326 326 326 325 324 323 323 322 322 322 321 321 318 317 320 320 321 322 323 324 329 332 326 323 321
338 339 338 338 330 324 326 331 329 328 328 328 328 328 327 327 326 326 326 324 324 323 324 323 323 324 322 322 322 322 321 320 321 321 320 320 321 321 320 320 320 320 320
341 339 339 338 333 326 328 331 329 328 328 328 328 328 328 328 326 325 326 325 324 325 325 325 323 324 325 324 322 322 320 319 321 321 320 320 320 320 320 320 320 320 319
339 340 340 341 337 332 332 331 330 328 329 329 328 329 328 328 327 326 327 327 326 325 326 325 325 325 323 323 323 321 319 321 321 321 321 321 321 320 319 319 320 319 318
340 341 339 340 339 334 333 331 329 328 329 329 329 330 329 328 328 327 327 327 326 324 324 324 325 323 324 324 323 323 320 319 321 322 322 322 321 321 321 321 321 319 319
339 340 340 340 340 334 333 332 330 329 330 329 330 329 329 329 328 328 327 327 327 324 322 320 318 317 323 322 320 319 320 321 320 320 320 322 322 322 322 322 321 320 318
339 339 339 340 339 336 333 331 331 329 330 330 330 330 330 329 329 328 327 327 327 325 323 320 318 322 320 318 313 317 319 320 321 321 320 320 321 321 321 322 322 321 320
340 338 338 339 336 334 332 331 329 330 330 330 329 327 326 328 327 327 326 327 325 324 319 320 316 318 317 313 313 313 313 314 317 321 322 321 321 320 322 322 321 321 320
341 337 335 329 333 333 332 330 330 330 329 329 329 326 325 324 324 325 324 327 324 323 320 318 317 317 313 314 314 314 313 312 312 312 315 317 320 321 321 320 321 321 320
340 338 335 331 331 333 331 330 329 330 330 329 327 324 323 323 326 324 322 323 322 321 319 318 318 318 316 315 315 314 314 313 309 309 314 315 314 317 320 320 319 320 320
335 336 336 331 331 332 330 331 333 330 330 329 327 325 323 323 320 324 323 322 322 321 320 320 319 319 318 316 315 315 314 313 311 309 315 316 316 317 316 318 318 318 320
335 337 336 335 334 330 333 333 332 330 326 323 322 321 321 321 322 322 323 322 321 320 320 319 319 319 318 317 316 315 315 314 313 310 310 315 314 315 319 320 319 319 320
337 336 336 336 332 333 332 330 329 324 321 321 321 321 322 321 322 322 322 321 320 320 319 319 319 318 318 317 317 316 315 313 314 313 310 314 314 313 316 320 320 320 320
338 337 336 333 334 332 330 328 323 320 320 320 321 321 322 322 321 319 318 318 318 317 317 317 317 318 318 317 316 315 313 313 313 314 314 314 313 313 312 317 319 320 320
337 333 331 331 332 331 330 322 322 323 322 320 321 323 322 321 319 317 316 313 310 309 310 311 312 312 312 311 310 313 311 311 313 314 314 314 315 313 311 312 316 319 319
Wind_Speed
21 17 17 15 14 12 11 9 8 8 7 8 7 7 7 6 5 5 5 4 4 4 3 3 3 4 5 5 6 5 5 5 4 3 2 2 2 2 2 1 1 3 5
21 19 17 16 14 12 12 10 8 8 8 7 6 6 6 6 6 6 5 5 5 4 4 5 5 6 6 6 7 7 8 8 6 6 6 5 4 4 4 3 1 2 4
18 19 17 15 14 12 11 9 8 8 7 6 6 5 5 4 5 5 5 6 5 5 6 6 6 7 7 7 8 8 8 9 9 8 8 7 8 5 5 5 5 4 4
17 18 16 14 13 12 12 9 8 7 6 5 4 4 4 4 5 5 6 6 7 7 7 8 9 9 9 10 10 9 9 10 11 11 11 12 11 10 6 6 6 6 6
17 18 16 15 14 11 9 8 6 5 5 4 3 3 3 3 4 4 5 5 6 6 7 8 9 10 10 11 11 11 11 11 12 13 14 14 13 12 11 8 7 7 6
16 18 16 14 12 11 9 7 6 5 4 3 2 1 1 1 1 1 1 2 4 4 5 5 5 5 7 8 9 10 10 11 14 15 16 18 15 13 12 10 8 7 7
16 17 15 13 12 10 8 7 6 5 4 2 1 1 1 1 1 1 3 4 6 6 6 5 4 4 4 4 5 6 8 10 13 16 17 19 18 15 14 11 10 7 8
12 15 14 13 11 9 8 7 6 5 3 1 0 1 1 1 1 3 4 7 9 9 8 8 7 5 4 3 1 2 4 6 9 13 18 21 20 17 17 12 9 9 11
13 14 14 13 11 10 9 7 6 4 3 1 1 2 2 1 1 2 4 6 10 11 10 13 11 8 5 2 2 4 6 5 3 6 15 21 22 18 18 14 10 9 9
14 15 16 15 12 11 9 8 6 4 2 1 3 3 4 2 1 3 3 5 8 9 11 13 12 10 8 4 5 6 8 8 8 5 9 19 22 16 15 16 14 13 10
18 17 15 16 14 12 10 9 7 5 4 1 1 4 3 2 3 3 1 4 5 7 8 9 10 10 10 7 7 11 14 11 8 6 5 10 16 13 14 15 14 13 11
22 22 19 17 16 15 15 12 10 7 5 3 2 3 3 6 5 3 4 5 7 8 8 8 10 10 11 12 12 15 16 13 11 7 7 2 6 9 10 11 12 13 13
21 23 22 19 19 19 18 15 13 10 9 7 6 5 5 5 4 5 5 8 11 11 12 11 12 13 13 14 17 17 20 16 10 10 8 7 3 5 6 8 11 14 16
27 26 25 23 22 23 20 17 14 13 11 10 9 9 7 8 7 6 8 10 13 12 13 12 17 17 15 16 13 14 20 13 9 9 9 11 14 14 15 16 17 19 20
28 32 30 29 26 24 22 19 17 16 14 11 12 12 11 10 10 10 11 14 13 16 15 18 20 17 17 13 14 16 14 11 12 12 14 12 13 12 13 13 14 16 17
24 34 29 30 29 26 23 22 19 16 15 15 14 13 13 13 14 15 14 15 17 17 18 15 16 18 15 15 19 16 17 16 17 15 13 17 19 17 16 16 15 15 15
24 27 30 28 28 27 24 23 22 18 17 16 14 14 14 14 17 17 19 19 18 16 16 14 18 21 20 21 22 24 22 21 22 22 20 17 17 19 20 24 22 16 15
17 20 29 31 29 28 24 24 26 21 18 15 16 16 16 19 22 26 24 19 19 16 18 17 19 20 20 20 25 23 23 25 27 27 26 24 22 22 22 21 23 23 18
15 15 10 22 20 24 27 24 23 23 20 21 19 19 19 19 20 19 21 21 21 20 17 16 15 16 21 17 18 17 18 21 24 27 31 32 30 27 24 21 18 20 22
13 15 19 5 19 26 25 23 24 23 23 23 21 19 20 17 21 24 21 23 21 21 16 18 16 17 17 19 19 18 21 22 23 24 27 30 34 33 30 29 26 23 21
14 19 20 3 13 23 27 30 27 23 22 19 19 16 22 23 19 23 22 20 23 21 19 19 19 21 21 20 21 22 25 25 25 20 18 24 30 31 35 36 33 30 22
13 17 20 17 8 19 24 28 23 19 17 17 23 25 23 21 22 20 20 22 20 22 21 22 24 25 25 22 19 17 17 29 17 22 19 20 19 21 26 29 29 26 20
12 11 22 16 21 19 23 25 17 17 12 15 11 16 17 19 18 17 19 21 23 23 24 23 25 25 26 24 19 17 12 14 34 32 28 21 15 17 17 15 18 24 24
13 14 19 16 12 11 12 13 10 9 10 7 11 11 14 17 16 15 21 22 21 22 22 26 28 29 22 21 23 24 18 20 27 30 30 27 23 16 18 13 11 16 20
13 10 9 7 7 8 5 8 5 4 4 7 11 14 18 22 23 21 21 28 27 24 23 22 18 19 21 22 20 24 23 22 23 26 33 31 25 18 13 18 14 15 20
10 7 4 4 6 8 6 4 2 7 9 12 16 18 19 18 19 22 24 25 23 26 27 27 29 29 31 34 27 26 30 26 24 23 25 32 28 23 16 15 18 20 19
Wind_Direction
182 184 186 181 179 178 181 178 175 175 179 185 187 181 181 183 188 194 207 222 232 231 239 249 242 233 233 229 231 232 232 233 232 236 235 238 198 177 142 173 268 146 143
175 179 184 181 180 182 183 184 181 181 179 184 185 187 187 191 197 209 221 231 242 247 257 263 265 262 252 243 244 239 232 232 228 233 239 220 212 199 182 186 260 233 176
181 180 185 180 181 183 185 187 185 185 181 181 181 184 189 200 210 221 229 237 244 250 254 254 255 258 260 257 250 249 243 240 237 227 224 213 204 201 217 211 226 238 222
182 187 187 183 181 184 187 187 185 183 179 184 187 197 208 224 235 249 257 262 265 263 262 261 259 256 252 253 250 245 241 238 234 227 220 217 218 209 218 229 224 216 213
188 190 188 187 186 189 190 193 188 190 197 203 214 226 241 252 263 273 285 289 292 286 276 267 262 258 255 253 253 250 242 237 233 223 218 217 228 225 222 228 227 230 244
185 184 187 189 192 197 200 197 202 206 206 199 188 177 197 236 256 348 353 348 336 321 310 302 296 280 266 257 252 251 249 239 233 225 222 221 228 223 211 227 216 221 236
180 185 191 194 200 199 202 204 207 203 188 178 167 188 241 268 8 82 66 20 5 352 334 323 314 302 293 281 267 252 249 247 241 227 225 222 224 221 210 228 229 234 243
196 197 199 203 202 203 206 207 198 191 183 165 258 281 268 156 82 122 52 39 28 19 16 5 349 329 306 286 286 325 292 268 251 235 227 224 225 228 222 225 242 259 254
204 207 208 205 206 206 208 201 195 185 174 165 288 288 290 302 59 55 37 35 32 31 34 24 13 6 354 47 43 334 325 339 321 246 229 226 227 232 226 224 240 254 275
196 205 209 209 213 210 203 191 189 182 191 292 295 280 270 274 256 358 18 17 24 28 25 16 10 5 6 6 3 349 354 351 343 320 258 227 224 231 229 228 234 244 255
197 206 209 210 210 206 193 191 195 201 213 245 278 300 277 306 295 300 3 6 340 11 8 3 2 350 343 333 341 336 327 325 332 343 320 239 224 222 224 227 233 243 247
204 203 204 204 205 203 195 197 200 211 215 241 256 297 286 329 317 291 301 344 336 331 340 344 337 323 325 321 333 339 341 316 304 322 343 316 216 211 215 225 235 243 256
213 213 210 209 210 210 205 206 205 201 210 237 238 251 252 297 303 279 295 313 316 312 303 312 302 299 302 304 310 327 331 321 293 292 309 309 281 217 231 247 256 261 268
244 230 220 214 213 212 212 217 217 213 217 235 237 247 249 278 270 257 262 283 286 280 289 295 300 305 285 282 292 315 323 305 290 297 305 313 287 277 275 276 281 284 286
225 242 232 223 215 213 218 221 216 222 227 239 238 248 247 272 275 263 284 297 292 294 285 291 292 291 286 288 288 297 304 291 295 290 286 284 293 288 285 285 296 292 282
236 238 245 237 224 218 224 226 220 227 232 239 251 259 254 274 271 264 272 288 280 290 287 294 291 295 285 281 286 287 281 271 281 283 287 277 273 275 278 281 287 294 278
236 241 257 254 231 226 231 235 227 231 225 232 252 260 272 269 266 271 267 277 282 275 266 291 292 294 290 290 288 287 281 272 269 274 276 271 270 274 278 273 272 278 280
233 233 246 249 241 223 234 243 235 234 225 233 252 269 271 262 264 261 273 283 289 270 276 291 300 285 285 298 299 291 285 275 274 269 269 268 266 269 272 274 269 267 273
239 223 223 237 223 223 233 238 233 227 229 254 255 260 271 275 278 282 281 276 278 275 281 288 303 297 299 302 318 312 309 299 291 274 270 267 264 263 261 261 255 259 266
252 212 189 202 237 229 232 229 219 228 257 261 258 268 275 277 279 275 270 271 272 271 280 287 297 300 290 300 308 314 322 315 304 294 281 273 267 264 262 260 254 259 258
214 199 200 198 237 235 228 224 239 252 256 258 272 270 285 290 291 285 273 269 270 273 275 280 288 297 292 287 298 304 313 317 319 306 285 281 272 267 262 264 264 255 252
196 197 196 215 261 228 223 233 247 250 263 273 280 267 288 272 291 278 277 272 272 275 279 285 281 287 287 283 288 305 316 315 321 324 293 285 286 264 262 266 260 251 239
209 221 208 242 266 239 237 245 242 259 279 273 287 291 289 305 296 270 266 261 269 276 276 270 275 279 279 275 277 298 311 303 316 316 310 301 295 280 270 271 259 237 237
202 201 214 238 261 248 256 264 249 264 293 271 297 298 304 313 313 292 270 280 287 282 278 275 279 279 265 270 275 283 295 297 301 308 302 295 303 300 260 263 248 227 223
204 213 212 244 244 258 270 242 219 293 278 276 288 294 294 295 293 294 298 297 298 295 289 281 284 285 278 274 280 288 295 291 293 285 290 293 296 290 284 258 253 233 230
181 186 201 218 258 270 248 179 228 279 283 289 286 284 292 298 305 312 311 309 310 307 301 294 286 281 282 287 288 278 288 286 282 280 278 288 294 296 292 258 247 240 238